Location: Poughquag
(41.6090°N, 73.6820°W)
Time: 21:23:16
(UTC-05:00)

N. Korean satellite - Pass Details

Date: 26 January 2021
Orbit: 451 x 503 km, 97.2° (Epoch: 24 February)

Event Time Altitude Azimuth Distance (km) Brightness Sun altitude
Rises 05:33:49 0° 8° (N) 2,500 10.2 -18.4°
Reaches altitude 10° 05:35:54 10° 5° (N) 1,613 9.2 -18.0°
Maximum altitude 05:39:18 62° 285° (WNW) 517 6.3 -17.3°
Drops below altitude 10° 05:42:39 10° 203° (SSW) 1,582 9.0 -16.7°
Sets 05:44:41 0° 200° (SSW) 2,446 10.0 -16.4°
